Regional Weather Roundup
Issued by NWS Wakefield, VA

Home | Current Version | Previous Version | Text Only | Print | Product List | Glossary Off
Versions: 1 2 3 4 5 6 7 8 9 10 11 12 13 14 15 16 17 18 19 20 21 22 23 24 25 26 27 28 29 30 31 32 33 34 35 36 37 38 39 40 41 42 43 44 45 46 47 48 49 50

000
ASUS41 KAKQ 302210
RWRAKQ

REGIONAL WEATHER ROUNDUP
NATIONAL WEATHER SERVICE WAKEFIELD VA
600 PM EDT WED JUL 30 2014

Note: "fair" indicates few or no clouds below 12,000 feet with no
significant weather and/or obstructions to visibility. * = Denotes
station may not report precipitation (e.g., rain,snow,etc.),
thunder or fog.

VAZ042-051-052>054-056-302300-
NORTHERN VIRGINIA

CITY           SKY/WX    TMP DP  RH WIND       PRES   REMARKS
WASH NATIONAL  MOSUNNY   79  55  43 S12       30.03F
DULLES         MOSUNNY   75  51  43 S8        30.03S
FORT BELVOIR   SUNNY     78  55  45 SE6       30.03F
QUANTICO       MOSUNNY   78  55  44 S7        30.04F
FREDERICKSBRG* SUNNY     80  54  40 S6        30.03S
STAFFORD*      SUNNY     78  53  41 CALM      30.07F
WARRENTON      SUNNY     80  63  55 S5        30.03S
CULPEPER*      SUNNY    N/A N/A N/A W5        30.03S
MANASSAS*      NOT AVBL
LEESBURG*      SUNNY     79  57  47 SW7       30.03F
WINCHESTER     MOSUNNY   77  54  44 SW5       30.03S
$$

VAZ048-049-060>072-079>083-302300-
CENTRAL AND SOUTH CENTRAL VIRGINIA...AND NORTH CENTRAL NORTH CAROLINA

CITY           SKY/WX    TMP DP  RH WIND       PRES   REMARKS
RICHMOND       MOSUNNY   82  51  34 W8        30.04F
CHESTERFIELD*  CLEAR    N/A N/A N/A SW3       30.06F
HANOVER        MOSUNNY   79  51  37 W5        30.05F
TAPPAHANNOCK*  CLOUDY    79  49  35 CALM      30.05S
CHARLOTTSVILLE MOSUNNY   77  54  44 VRB3      30.03F
ORANGE*        SUNNY     79  54  41 S3        30.05S
LOUISA*        SUNNY     79  57  47 SW3       30.03F
FARMVILLE*     SUNNY     79  54  41 S7        30.03S
SOUTH HILL*    SUNNY     81  63  54 CALM      30.10S
ROANOKE RAPIDS NOT AVBL
RALEIGH        MOSUNNY   78  63  59 E8        30.04F
$$

VAZ088>098-302300-
SOUTHEAST VIRGINIA

CITY           SKY/WX    TMP DP  RH WIND       PRES   REMARKS
NORFOLK        MOSUNNY   77  57  50 NE5       30.04F
VIRGINIA BEACH MOSUNNY   76  57  51 E8        30.05R
NORFOLK NAVAL  MOSUNNY   80  58  46 CALM      30.06S
WEST POINT*    SUNNY     81  54  39 S5        30.06S
NEWPORT NEWS   PTSUNNY   82  59  45 SE6       30.04F
LANGLEY AFB    PTSUNNY   78  59  51 E6        30.04S
FORT EUSTIS    SUNNY     79  58  48 N3        30.03S
WILLIAMSBURG*  SUNNY     82  61  47 SW3       30.05F
FRANKLIN*      MOSUNNY   81  59  47 CALM      30.04S
WAKEFIELD      SUNNY     81  60  48 N3        30.05S
$$

VAZ020-022-025-037-045-302300-
WESTERN AND SOUTHWEST VIRGINIA

CITY           SKY/WX    TMP DP  RH WIND       PRES   REMARKS
STAUNTON*      SUNNY     76  52  42 S7        30.07F
HOT SPRINGS VA PTSUNNY   62  47  59 SW6       30.17F
LYNCHBURG      SUNNY     77  53  43 SW6       30.07F
DANVILLE       SUNNY     80  59  48 NE5       30.05S
MARTINSVILLE   SUNNY     83  52  34 CALM      30.07F
ROANOKE        MOSUNNY   75  54  47 SE5       30.08F
BLACKSBURG     PTSUNNY   75  52  43 CALM        N/A
DUBLIN*        PTSUNNY   75  49  41 CALM      30.11S
MARION*        MOSUNNY   74  49  41 W8        30.14S
HILLSVILLE*    PTSUNNY   73  47  39 CALM      30.12F
RICHLANDS*     CLEAR     74  53  47 W5        30.13S
WISE*          CLOUDY    73  50  43 CALM      30.15S
ABINGDON*      SUNNY     76  53  45 W3        30.11S
$$

MDZ021>025-VAZ099-100-302300-
SOUTHERN MARYLAND AND THE DELMARVA PENINSULA

CITY           SKY/WX    TMP DP  RH WIND       PRES   REMARKS
PATUXENT RIVER MOSUNNY   78  50  37 W9        30.04S
BAY BRIDGE APT   N/A     77  50  38 S7        30.03F
LEONARDTOWN    SUNNY     77  50  38 W3        30.06S
DOVER          SUNNY     77  51  39 W8        30.02S
GEORGETOWN     MOSUNNY   78  52  40 VRB7      30.04F
EASTON         SUNNY     79  54  41 SW5       30.08S
CAMBRIDGE      SUNNY     79  52  38 CALM      30.04S
SALISBURY      SUNNY     80  50  34 W6        30.04S
OCEAN CITY     SUNNY     74  59  59 SE8       30.04F
WALLOPS ISLAND SUNNY     79  53  40 W6        30.05S
ACCOMACK*        N/A     77  52  41 CALM      30.05S
$$

NCZ012>017-030>032-302300-
EASTERN NORTH CAROLINA

CITY           SKY/WX    TMP DP  RH WIND       PRES   REMARKS
ELIZABETH CITY PTSUNNY   78  62  57 E7        30.05S
AHOSKIE*       SUNNY     78  64  62 CALM      30.05S
EDENTON*       SUNNY     81  60  48 CALM      30.04F
CURRITUCK*     MOSUNNY   79  58  48 E6        30.06S
KILL DEVIL HLS SUNNY     77  60  55 E6        30.05S
MANTEO         NOT AVBL
CAPE HATTERAS  SUNNY     80  61  52 NE10      30.05S
GOLDSBORO      SUNNY     83  66  55 NE8       30.00F
WASHINGTON     SUNNY     81  64  55 E8        30.03F
GREENVILLE     MOSUNNY   82  63  51 CALM      30.04F
NEW BERN       SUNNY     83  64  52 SE9       30.03F
WILMINGTON     SUNNY     82  64  54 E10       30.01F
$$

VAZ048-302300-
ELSEWHERE

CITY           SKY/WX    TMP DP  RH WIND       PRES   REMARKS
HARRISBURG PA  MOSUNNY   78  56  46 VRB5      30.00F
BALTIMORE      MOSUNNY   79  48  33 W5        30.02S
ANNAPOLIS      SUNNY     76  55  48 S8        30.03S
ANDREWS AFB    SUNNY     77  54  44 SW7       30.03F
WILMINGTON DE  SUNNY     77  54  44 SW9       30.03F
PHILADELPHIA   MOSUNNY   79  52  38 SW10G24   30.02F
WILDWOOD NJ*   SUNNY     75  52  43 W5        30.05S
ATLANTIC CITY  SUNNY     77  51  40 W8        30.02S
HENDERSON NC   LGT RAIN  69  65  88 E3        30.06S
GREENSBORO     MOSUNNY   79  61  53 E6        30.04F
ROCKY MOUNT    PTSUNNY   83  62  49 E6        30.03F
FAYETTEVILLE   MOSUNNY   86  61  42 NE6       30.00F
CHARLOTTE      PTSUNNY   83  58  42 N6        30.04S
$$

VAZ100-302300-
MARINE

STATION/POSITION TIME  TEMP    WIND        PRES    WAVE   SWELL
                       AIR SEA DIR/SP/G            HT/PER HT/PER
                 (UTC) (F)     (DEG/KT/KT) (MB)    (FT/S) (FT/S)
44066 TX TWR #4  2200   73 76  280/  2/  4 1017.1R   3/ 7   3/ 7
CAPE MAY NJ      2200   76 79  280/  2/  3 1016.8F
LEWES DE         2200   74 74  150/  6/  8 1017.0F
15NM E FENWICK I 2200   74 75              1017.7F   2/ 8
OCEAN-CITY-INLET 2200   74 73  170/  7/  9 1017.0F
WACHAPREAGUE VA  2200   79 82  260/  3/  5 1017.4S
THOMAS POINT MD  2200   75 78  170/ 12/ 14 1017.3F
GOOSES REEF MD   2200   76     230/  8/ 12 1017.6S
COVE POINT MD    2200   76     320/  5/  7 1017.1S
SOLOMONS ISLAND  2200      80                N/A
BISHOPS HEAD MD  2200   76 79  220/  3/  3 1017.0S
PINEY POINT MD   2200          330/  8/  9   N/A
POTOMAC MD       2200   77     260/  4/  6 1016.5F
CAMBRIDGE MD     2200   76 79  330/  3/  6 1016.9F
LEWISETTA VA     2200   76 77   80/  3/  4 1017.1S
RAPPAHANNOCK LGT 2200          100/  2/  3 1018.0S
STINGRAY PT      2200   76     160/  4/  6 1018.1S
YORK RVR RNG VA  2200   75     130/  6/  8 1016.9F
YORKTOWN VA      2200   76 80   80/  7/  8 1017.2R
JAMESTOWN VA     2200   77     310/  2/  4   N/A
DOMINION TERM VA 2200   78     230/  2/  3 1017.4F
KIPTOPEKE VA     2200      81  270/  2/  3   N/A
CHES BAY BRIDGE  2200   75 77   50/  3/  4 1016.9F
CAPE HENRY VA    2200   76     100/  5/  6 1016.4S
WILLOUBY STN VA  2200          230/  2/  3 1016.7S
S CRANEY ISL VA  2200           40/  3/  4 1017.3F
CAPE HENRY BUOY  2200      80                N/A     2/ 8
1ST LANDING BUOY 2200   76      50/  4/  6 1017.2S
CAPE CHARLES BUO 2200      80                N/A     2/ 8
OFFSHORE WE BUOY 2200      79                N/A     2/ 8
64NM E OF VA BCH 2200   75 78   10/  8/ 10 1017.7R   3/ 8   2/ 8
DUCK PIER NC     2200   76 77   80/  7/  9 1017.2S
44056 DUCK FRF   2200                        N/A     2/ 7
OREGON INLET NC  2200   76 78   60/  9/ 11 1017.8F
HATTERAS NC      2200   78 80   60/  9/ 11 1017.8F
DIAMOND SHLS NC  2200          VRB 14/ 16  1017.0F   4/ 6   2/ 8
CAPE LOOKOUT NC  2100   78      60/ 13/ 15 1017.0F
$$


USA.gov is the U.S. government's official web portal to all federal, state and local government web resources and services.